Location: Shell Point
(30.0571°N, 84.2896°W)
Time: 04:30:25
(UTC-04:00)

Meteor 2-19 Rocket - Visible Passes

Search period start: 22 May 2015 00:00
Search period end: 01 June 2015 00:00
Orbit: 937 x 958 km, 82.5° (Epoch: 21 May)

Date Brightness Start Highest point End Pass type
(mag) Time Alt. Az. Time Alt. Az. Time Alt. Az.
22 May 5.8 02:21:40 33° NE 02:21:40 33° NE 02:25:20 10° NNE visible
22 May 6.2 04:05:45 18° WNW 04:05:45 18° WNW 04:08:46 10° NNW visible
23 May 5.5 02:38:37 42° NNE 02:38:37 42° NNE 02:42:35 10° N visible
23 May 6.6 04:22:42 10° WNW 04:22:42 10° WNW 04:23:16 10° WNW visible
24 May 6.9 01:11:30 11° ENE 01:11:30 11° ENE 01:11:59 10° ENE visible
24 May 5.4 02:55:33 41° NNW 02:55:33 41° NNW 02:59:32 10° N visible
25 May 6.5 01:28:25 18° NE 01:28:25 18° NE 01:30:42 10° NE visible
25 May 5.7 03:12:29 31° NW 03:12:29 31° NW 03:16:12 10° NNW visible
26 May 6.1 01:45:20 27° NE 01:45:20 27° NE 01:48:28 10° NNE visible
26 May 6.2 03:29:23 21° NW 03:29:23 21° NW 03:32:28 10° NNW visible
27 May 5.7 02:02:13 36° NNE 02:02:13 36° NNE 02:05:49 10° NNE visible
27 May 6.6 03:46:17 13° WNW 03:46:17 13° WNW 03:47:52 10° NW visible
28 May 5.6 02:19:06 39° N 02:19:06 39° N 02:22:52 10° N visible
29 May 6.6 00:51:55 15° ENE 00:51:55 15° ENE 00:53:33 10° NE visible
29 May 5.7 02:35:59 33° NNW 02:35:59 33° NNW 02:39:38 10° N visible
30 May 6.2 01:08:47 23° NE 01:08:47 23° NE 01:11:33 10° NNE visible
30 May 6.1 02:52:50 23° NW 02:52:50 23° NW 02:56:03 10° NNW visible
31 May 5.8 01:25:38 33° NNE 01:25:38 33° NNE 01:29:01 10° NNE visible
31 May 6.5 03:09:41 15° WNW 03:09:41 15° WNW 03:11:53 10° NW visible
